Hourly Data Report for September 11, 2019

SAINT JOHN A
NEW BRUNSWICK
Current Station Operator: NAVCAN

45°18'58.000" N
65°53'24.000" W
108.80 m
8104901
71609
YSJ

Download Data

Hourly Data (September 2019)
Hourly Data Report for September 11, 2019
TIME
LST
Temp Definition
°C
Dew Point Definition
°C
Rel Hum Definition
%
Precip. Amount Definition
mm

Wind Dir Definition
10's deg

Wind Spd Definition
km/h
Visibility Definition
km
Stn Press Definition
kPa
Hmdx Definition


Wind Chill Definition


Weather Definition


00:00 12.5 12.0 97   20 10 24.1 101.17     Rain
01:00 12.5 12.4 99   18 10 24.1 101.10     LegendNANA
02:00 12.5 12.5 100   19 12 4.8 101.02     Rain, Fog
03:00 12.8 12.8 100   20 16 8.1 100.97     Fog
04:00 13.0 12.4 96   20 21 24.1 100.90     LegendNANA
05:00 12.8 11.8 94   20 23 12.9 100.84     Cloudy
06:00 12.2 11.2 94   18 18 8.1 100.75     Rain, Fog
07:00 12.1 11.6 97   19 28 8.1 100.66     Rain, Fog
08:00 12.3 12.2 99   19 25 16.1 100.60     Rain
09:00 13.3 13.2 99   20 25 16.1 100.52     LegendNANA
10:00 13.6 13.1 97   20 29 24.1 100.43     LegendNANA
11:00 13.6 13.5 100   21 25 4.8 100.33     Moderate Rain Showers, Fog
12:00 14.1 14.1 100   21 27 4.8 100.23     Fog
13:00 14.7 14.7 100   20 23 3.2 100.13     Fog
14:00 14.6 14.6 100   21 22 0.8 100.03     Fog
15:00 14.8 14.8 100   22 17 0.8 100.04     Fog
16:00 15.1 15.1 100   20 21 0.8 99.92     Fog
17:00 14.9 14.9 100   21 11 0.8 99.97     Fog
18:00 14.7 14.7 100   19 11 0.4 99.93     Fog
19:00 14.5 14.5 100   18 5 1.0 99.97     Rain Showers, Fog
20:00 14.4 14.4 100   36 2 1.0 100.02     Fog
21:00 14.5 14.5 100   36 1 0.6 100.04     Fog
22:00 16.3 16.3 100   35 12 3.2 100.09     Fog
23:00 15.7 15.7 100   33 16 4.8 100.14     Fog

Notes on Data Quality.

Legend

  • E = Estimated
  • M = Missing
  • NA = Not Available*
  • [empty] = Indicates an unobserved value
Date modified: